Regional Weather Roundup
Issued by NWS

Home | Current Version | Previous Version | Graphics & Text | Print | Product List | Glossary On
Versions: 1 2 3 4 5 6 7 8 9 10 11 12 13 14 15 16 17 18 19 20 21 22 23 24 25 26 27 28 29 30 31 32 33 34 35 36 37 38 39 40 41 42 43 44 45 46 47 48 49 50
000
ASUS45 KBOU 040107
RWRCO

WEATHER ROUNDUP FOR COLORADO
NATIONAL WEATHER SERVICE DENVER/BOULDER CO
700 PM MDT MON AUG 03 2015

NOTE: "FAIR" INDICATES FEW OR NO CLOUDS BELOW 12000 FEET WITH NO
SIGNIFICANT WEATHER AND/OR OBSTRUCTIONS TO VISIBILITY.

COZ001>005-013-030-031-040200-
...NORTHWEST COLORADO...

CITY           SKY/WX    TMP DP  RH WIND       PRES   REMARKS
CRAIG          PTSUNNY   67  56  67 E10       30.13S THUNDER
HAYDEN         PTSUNNY   61  54  77 SE7       30.17R
MEEKER         LGT RAIN  66  56  70 SE6       30.13S
MOUNT WERNER   NOT AVBL
STEAMBOAT SPGS   N/A     56  54  94 NE8       30.20R
WALDEN         CLOUDY    57  45  62 W6        30.27R
$$

COZ006>008-011-040200-
...WEST CENTRAL VALLEYS...

CITY           SKY/WX    TMP DP  RH WIND       PRES   REMARKS
GRAND JUNCTION PTSUNNY   82  44  26 W14       30.01S
MONTROSE       CLOUDY    78  51  38 S13       30.12S
EAGLE          MOSUNNY   73  48  40 NW3       30.17F
RIFLE          PTSUNNY   73  55  53 E12       30.06S
DELTA          CLOUDY    86  41  20 W8        30.05S
NUCLA          NOT AVBL
$$

COZ017>023-064>068-040200-
...SOUTHWEST COLORADO...

CITY           SKY/WX    TMP DP  RH WIND       PRES   REMARKS
DURANGO        MOSUNNY   76  39  26 N18G30    30.19R
CORTEZ         SUNNY     81  44  27 W12       30.13S
PAGOSA SPRINGS PTSUNNY   66  47  51 NE5       30.27R
TELLURIDE      NOT AVBL
WOLF CREEK PAS NOT AVBL
$$

COZ009-010-012-014-032>034-037-058>063-040200-
...CENTRAL COLORADO...

CITY           SKY/WX    TMP DP  RH WIND       PRES   REMARKS
ASPEN          PTSUNNY   62  50  64 S8        30.27F
BUENA VISTA    MOSUNNY   71  37  29 W17G23    30.26R
COPPER MTN     PTSUNNY   54  36  50 SW7G16    30.55F
BERTHOUD PASS  PTSUNNY   43  32  65 SE6       30.59F THUNDER
COTTONWOOD PAS MOSUNNY   64  36  34 W18G32    30.39S
GUNNISON       MOSUNNY   70  43  37 W9        30.27S
KREMMLING      CLOUDY    73  37  27 S12       30.20F
LEADVILLE      PTSUNNY   56  42  59 NW6       30.40R
MONARCH PASS   DRIZZLE   50  45  81 W17       30.66F
SALIDA         MOSUNNY   72  46  39 W8        30.30F
SUNLIGHT       PTSUNNY   54  50  87 CALM      30.48S
WILKERSON PASS NOT AVBL
$$

COZ069>075-040200-
...SAN LUIS VALLEY/SANGRE DE CRISTO MOUNTAINS...

CITY           SKY/WX    TMP DP  RH WIND       PRES   REMARKS
ALAMOSA        LGT RAIN  68  52  56 SW12      30.23S
LA VETA PASS   PTSUNNY   54  46  76 MISG      30.43R
SAGUACHE       PTSUNNY   72  50  46 SE9       30.26R
$$

COZ035-036-038>040-040200-
...NORTHERN COLORADO FRONT RANGE...

CITY           SKY/WX    TMP DP  RH WIND       PRES   REMARKS
DENVER INTL AP PTSUNNY   75  50  41 S20       30.07S
DMNS CITY PARK   N/A     74  53  47 SW8       30.06S
AURORA         PTSUNNY   73  54  50 S13       30.09F
FRONT RANGE AP PTSUNNY   75  50  41 SE16G23   30.08F
ERIE MUNI ARPT PTSUNNY   80  47  31 S13       30.03F
BOULDER MUN AP PTSUNNY   77  48  36 S9        30.04F
CENTENNIAL     PTSUNNY   70  54  56 S10G24    30.10R
BROOMFIELD     PTSUNNY   77  50  38 S12       30.08F
FORT COLLINS   PTSUNNY   81  48  32 S9        30.01R
LONGMONT       PTSUNNY   82  47  29 S8        30.04S
$$

COZ041-046-047-076>085-087-088-040200-
...PIKES PEAK/PALMER DIVIDE AND SOUTHERN FOOTHILLS...

CITY           SKY/WX    TMP DP  RH WIND       PRES   REMARKS
COLO. SPRINGS  PTSUNNY   68  55  63 E8        30.17R
A. F. ACADEMY  MOSUNNY   69  53  57 E10       30.18R
ELLICOTT       MOSUNNY  N/A N/A N/A E12       30.14R
FALCON         MOSUNNY   66  52  59 E9        30.22R
FORT CARSON    SUNNY     72  56  58 NE10      30.13R
LIMON          MOSUNNY   66  54  65 E13       30.12F
MONUMENT HILL  PTSUNNY   64  50  59 SE13      30.21S
TRINIDAD       CLOUDY    80  53  39 MISG      30.07R THUNDER
$$

COZ042>045-048>051-090-091-040200-
...NORTHEAST COLORADO...

CITY           SKY/WX    TMP DP  RH WIND       PRES   REMARKS
GREELEY ARPT   PTSUNNY   79  52  38 S8        30.03R
AKRON          PTSUNNY   76  48  37 S21G31    30.04R
BURLINGTON     RAIN      74  47  38 CALM      30.07R
WRAY           PTSUNNY   83  49  30 S23G33    29.98R
STERLING       PTSUNNY   82  52  34 S9        29.97S
HOLYOKE        PTSUNNY   84  59  42 SE8       29.97S
FORT MORGAN    PTSUNNY   77  47  34 S12G20    30.05R
$$

COZ086-089-092>099-040200-
...SOUTHEAST COLORADO...

CITY           SKY/WX    TMP DP  RH WIND       PRES   REMARKS
PUEBLO         SUNNY     80  52  37 E15       30.03R
LA JUNTA       SUNNY     80  57  45 E13       30.00R
LAMAR          PTSUNNY   76  65  68 NE8       29.98R
SPRINGFIELD      N/A     73  64  73 E8        30.01F
$$


USA.gov is the U.S. government's official web portal to all federal, state and local government web resources and services.